Location: Santa Cristina
(46.5667°N, 11.7167°E)
Time: 06:53:22
(UTC+00:00)

Cosmos 2082 Rocket - Pass Details

Date: 21 April 2021
Orbit: 835 x 852 km, 71.0° (Epoch: 05 May)

Event Time Altitude Azimuth Distance (km) Brightness Sun altitude
Rises 02:42:35 0° 320° (NW) 3,394 5.3 -15.0°
Reaches altitude 10° 02:45:42 10° 303° (WNW) 2,453 4.4 -14.5°
Maximum altitude 02:49:29 19° 260° (W) 1,895 3.5 -14.0°
Enters shadow 02:50:02 19° 253° (WSW) 1,907 3.5 -13.9°
